This demonstration page uses our WeatherBlox Daily Observations layout. Learn more.

41.55636, -103.73856

Hourly Observations for June 16, 2017

Temp ( °F °C ) Dew Point ( °F °C ) Humidity (%) Winds ( mph kmh ) Pressure ( in mb ) Visibility ( mi km ) Precip ( " mm )
12:53 am 00:53 Clear 59 15 48 8.9 67 67 SSW 7 11 29.82 1010 10 16.0934 0 0
1:53 am 01:53 Clear 56 13.3 50 10 81 81 NNW 7 11 29.82 1010 10 16.0934 0 0
2:53 am 02:53 Clear 59 15 49 9.4 69 69 NE 6 9 29.78 1009 10 16.0934 0 0
4:53 am 04:53 Clear 57 13.9 50 10 78 78 N 3 6 29.77 1008 10 16.0934 0 0
5:53 am 05:53 Sunny 59 15 46 7.8 62 62 NW 5 7 29.76 1008 10 16.0934 0 0
6:53 am 06:53 Sunny 61 16.1 46 7.8 58 58 WNW 7 11 29.77 1008 10 16.0934 0 0
7:53 am 07:53 Sunny 67 19.4 46 7.8 47 47 WNW 10 17 29.76 1008 10 16.0934 0 0
8:53 am 08:53 Sunny 72 22.2 43 6.1 35 35 NW 9 15 29.75 1007 10 16.0934 0 0
9:53 am 09:53 Sunny 80 26.7 46 7.8 30 30 WNW 10 17 29.72 1007 10 16.0934 0 0
10:53 am 10:53 Sunny 83 28.3 38 3.3 20 20 W 15 24 29.7 1006 10 16.0934 0 0
11:53 am 11:53 Sunny 86 30 40 4.4 20 20 WNW 14 22 29.7 1006 10 16.0934 0 0
12:53 pm 12:53 Sunny 87 30.6 41 5 20 20 WNW 18 30 29.69 1006 10 16.0934 0 0
1:53 pm 13:53 Sunny 90 32.2 42 5.6 19 19 W 16 26 29.66 1005 10 16.0934 0 0
2:53 pm 14:53 Mostly Sunny 90 32.2 43 6.1 19 19 NW 15 24 29.64 1004 10 16.0934 0 0
3:53 pm 15:53 Sunny 91 32.8 43 6.1 19 19 NNW 22 35 29.62 1003 10 16.0934 0 0
4:53 pm 16:53 Mostly Sunny 89 31.7 48 8.9 24 24 N 12 19 29.63 1003 10 16.0934 0 0
5:53 pm 17:53 Mostly Sunny 86 30 48 8.9 27 27 NE 8 13 29.62 1003 10 16.0934 0 0
6:53 pm 18:53 Sunny 84 28.9 49 9.4 30 30 undefined N/A 29.62 1003 10 16.0934 0 0
7:53 pm 19:53 Sunny 78 25.6 52 11.1 40 40 NE 8 13 29.63 1003 10 16.0934 0 0
8:53 pm 20:53 Clear 72 22.2 54 12.2 53 53 E 8 13 29.65 1004 10 16.0934 0 0
9:53 pm 21:53 Clear 68 20 54 12.2 61 61 VRB 3 6 29.66 1004 10 16.0934 0 0
10:53 pm 22:53 Clear 68 20 53 11.7 59 59 E 9 15 29.65 1004 10 16.0934 0 0
11:53 pm 23:53 Clear 68 20 52 11.1 57 57 NNE 16 26 29.64 1004 10 16.0934 0 0

Powered by AerisWeather